Time,TemperatureF,DewpointF,PressureIn,WindDirection,WindDirectionDegrees,WindSpeedMPH,WindSpeedGustMPH,Humidity,HourlyPrecipIn,Conditions,Clouds,dailyrainin,SoftwareType,DateUTC
2013-11-09 00:03:00,46.8,35.2,29.97,West,270,6.0,15.0,64,0.00,,,0.00,Weather View 32 v70,2013-11-09 06:03:00,
2013-11-09 00:08:00,47.1,35.1,29.97,WSW,247,6.0,17.0,63,0.00,,,0.00,Weather View 32 v70,2013-11-09 06:08:00,
2013-11-09 00:13:00,47.1,35.1,29.98,West,270,15.0,17.0,63,0.00,,,0.00,Weather View 32 v70,2013-11-09 06:13:00,
2013-11-09 00:18:00,46.9,34.9,29.98,West,270,4.0,17.0,63,0.00,,,0.00,Weather View 32 v70,2013-11-09 06:18:00,
2013-11-09 00:23:00,46.7,34.8,29.98,West,270,7.0,17.0,63,0.00,,,0.00,Weather View 32 v70,2013-11-09 06:23:00,
2013-11-09 00:28:00,46.6,34.7,29.98,West,270,6.0,17.0,63,0.00,,,0.00,Weather View 32 v70,2013-11-09 06:28:00,
2013-11-09 00:33:00,46.6,34.7,29.98,West,270,12.0,17.0,63,0.00,,,0.00,Weather View 32 v70,2013-11-09 06:33:00,
2013-11-09 00:38:00,46.5,35.0,29.98,West,270,7.0,17.0,64,0.00,,,0.00,Weather View 32 v70,2013-11-09 06:38:00,
2013-11-09 00:43:00,46.3,34.8,29.98,West,270,8.0,17.0,64,0.00,,,0.00,Weather View 32 v70,2013-11-09 06:43:00,
2013-11-09 00:48:00,46.1,34.6,29.98,West,270,4.0,17.0,64,0.00,,,0.00,Weather View 32 v70,2013-11-09 06:48:00,
2013-11-09 00:53:00,45.9,34.8,29.98,WSW,247,4.0,17.0,65,0.00,,,0.00,Weather View 32 v70,2013-11-09 06:53:00,
2013-11-09 00:58:00,45.9,34.8,29.98,West,270,7.0,17.0,65,0.00,,,0.00,Weather View 32 v70,2013-11-09 06:58:00,
2013-11-09 01:03:00,45.8,34.7,29.98,West,270,11.0,17.0,65,0.00,,,0.00,Weather View 32 v70,2013-11-09 07:03:00,
2013-11-09 01:08:00,45.7,34.6,29.98,SW,225,4.0,16.0,65,0.00,,,0.00,Weather View 32 v70,2013-11-09 07:08:00,
2013-11-09 01:13:00,45.7,34.6,29.98,West,270,4.0,16.0,65,0.00,,,0.00,Weather View 32 v70,2013-11-09 07:13:00,
2013-11-09 01:18:00,45.7,34.6,29.98,WSW,247,2.0,14.0,65,0.00,,,0.00,Weather View 32 v70,2013-11-09 07:18:00,
2013-11-09 01:23:00,45.7,34.2,29.99,West,270,4.0,14.0,64,0.00,,,0.00,Weather View 32 v70,2013-11-09 07:23:00,
2013-11-09 01:28:00,45.9,34.0,29.98,West,270,9.0,14.0,63,0.00,,,0.00,Weather View 32 v70,2013-11-09 07:28:00,
2013-11-09 01:33:00,46.1,34.2,29.98,West,270,7.0,13.0,63,0.00,,,0.00,Weather View 32 v70,2013-11-09 07:33:00,
2013-11-09 01:38:00,46.3,34.4,29.98,West,270,11.0,13.0,63,0.00,,,0.00,Weather View 32 v70,2013-11-09 07:38:00,
2013-11-09 01:43:00,46.3,34.0,29.98,West,270,6.0,13.0,62,0.00,,,0.00,Weather View 32 v70,2013-11-09 07:43:00,
2013-11-09 01:48:00,46.3,34.0,29.98,West,270,4.0,14.0,62,0.00,,,0.00,Weather View 32 v70,2013-11-09 07:48:00,
2013-11-09 01:53:00,46.3,34.4,29.98,West,270,4.0,14.0,63,0.00,,,0.00,Weather View 32 v70,2013-11-09 07:53:00,
2013-11-09 01:58:00,46.4,34.5,29.99,West,270,4.0,14.0,63,0.00,,,0.00,Weather View 32 v70,2013-11-09 07:58:00,
2013-11-09 02:03:00,46.3,34.0,30.00,West,270,7.0,14.0,62,0.00,,,0.00,Weather View 32 v70,2013-11-09 08:03:00,
2013-11-09 02:08:00,46.5,34.2,30.00,WNW,292,3.0,16.0,62,0.00,,,0.00,Weather View 32 v70,2013-11-09 08:08:00,
2013-11-09 02:13:00,46.6,34.3,30.00,West,270,3.0,16.0,62,0.00,,,0.00,Weather View 32 v70,2013-11-09 08:13:00,
2013-11-09 02:18:00,46.5,34.6,30.00,WNW,292,5.0,16.0,63,0.00,,,0.00,Weather View 32 v70,2013-11-09 08:18:00,
2013-11-09 02:23:00,46.4,34.5,30.00,West,270,4.0,16.0,63,0.00,,,0.00,Weather View 32 v70,2013-11-09 08:23:00,
2013-11-09 02:28:00,46.4,34.1,30.00,WSW,247,4.0,16.0,62,0.00,,,0.00,Weather View 32 v70,2013-11-09 08:28:00,
2013-11-09 02:33:00,46.4,34.5,30.00,West,270,5.0,16.0,63,0.00,,,0.00,Weather View 32 v70,2013-11-09 08:33:00,
2013-11-09 02:38:00,46.3,34.4,30.00,West,270,9.0,16.0,63,0.00,,,0.00,Weather View 32 v70,2013-11-09 08:38:00,
2013-11-09 02:43:00,46.5,34.2,30.01,SW,225,6.0,16.0,62,0.00,,,0.00,Weather View 32 v70,2013-11-09 08:43:00,
2013-11-09 02:48:00,46.8,34.0,30.01,West,270,8.0,16.0,61,0.00,,,0.00,Weather View 32 v70,2013-11-09 08:48:00,
2013-11-09 02:53:00,47.1,33.9,30.00,West,270,7.0,16.0,60,0.00,,,0.00,Weather View 32 v70,2013-11-09 08:53:00,
2013-11-09 02:58:00,47.1,34.3,30.00,West,270,6.0,16.0,61,0.00,,,0.00,Weather View 32 v70,2013-11-09 08:58:00,
2013-11-09 03:03:00,47.1,33.9,30.00,West,270,7.0,16.0,60,0.00,,,0.00,Weather View 32 v70,2013-11-09 09:03:00,
2013-11-09 03:08:00,47.1,33.9,30.01,West,270,7.0,16.0,60,0.00,,,0.00,Weather View 32 v70,2013-11-09 09:08:00,
2013-11-09 03:13:00,47.2,34.0,30.00,WNW,292,5.0,15.0,60,0.00,,,0.00,Weather View 32 v70,2013-11-09 09:13:00,
2013-11-09 03:18:00,47.2,34.0,30.00,West,270,10.0,15.0,60,0.00,,,0.00,Weather View 32 v70,2013-11-09 09:18:00,
2013-11-09 03:23:00,47.2,34.0,30.01,West,270,6.0,15.0,60,0.00,,,0.00,Weather View 32 v70,2013-11-09 09:23:00,
2013-11-09 03:28:00,47.3,34.1,30.01,West,270,6.0,15.0,60,0.00,,,0.00,Weather View 32 v70,2013-11-09 09:28:00,
2013-11-09 03:33:00,47.4,33.8,30.02,West,270,7.0,15.0,59,0.00,,,0.00,Weather View 32 v70,2013-11-09 09:33:00,
2013-11-09 03:38:00,47.3,34.1,30.02,WNW,292,2.0,15.0,60,0.00,,,0.00,Weather View 32 v70,2013-11-09 09:38:00,
2013-11-09 03:43:00,47.1,33.9,30.02,West,270,8.0,15.0,60,0.00,,,0.00,Weather View 32 v70,2013-11-09 09:43:00,
2013-11-09 03:48:00,47.1,33.5,30.03,WSW,247,9.0,15.0,59,0.00,,,0.00,Weather View 32 v70,2013-11-09 09:48:00,
2013-11-09 03:53:00,47.0,33.4,30.03,WSW,247,8.0,13.0,59,0.00,,,0.00,Weather View 32 v70,2013-11-09 09:53:00,
2013-11-09 03:58:00,46.9,33.3,30.03,SW,225,5.0,13.0,59,0.00,,,0.00,Weather View 32 v70,2013-11-09 09:58:00,
2013-11-09 04:03:00,46.9,33.7,30.04,WNW,292,7.0,13.0,60,0.00,,,0.00,Weather View 32 v70,2013-11-09 10:03:00,
2013-11-09 04:08:00,46.8,33.2,30.04,West,270,6.0,13.0,59,0.00,,,0.00,Weather View 32 v70,2013-11-09 10:08:00,
2013-11-09 04:13:00,46.4,33.2,30.04,West,270,7.0,13.0,60,0.00,,,0.00,Weather View 32 v70,2013-11-09 10:13:00,
2013-11-09 04:18:00,45.9,33.2,30.04,West,270,3.0,13.0,61,0.00,,,0.00,Weather View 32 v70,2013-11-09 10:18:00,
2013-11-09 04:23:00,45.6,33.3,30.04,West,270,4.0,13.0,62,0.00,,,0.00,Weather View 32 v70,2013-11-09 10:23:00,
2013-11-09 04:28:00,45.3,33.4,30.05,West,270,6.0,13.0,63,0.00,,,0.00,Weather View 32 v70,2013-11-09 10:28:00,
2013-11-09 04:33:00,45.1,32.8,30.05,WSW,247,6.0,12.0,62,0.00,,,0.00,Weather View 32 v70,2013-11-09 10:33:00,
2013-11-09 04:38:00,44.9,32.7,30.06,WNW,292,4.0,12.0,62,0.00,,,0.00,Weather View 32 v70,2013-11-09 10:38:00,
2013-11-09 04:43:00,44.9,32.7,30.05,West,270,3.0,12.0,62,0.00,,,0.00,Weather View 32 v70,2013-11-09 10:43:00,
2013-11-09 04:48:00,44.6,32.8,30.06,SW,225,5.0,12.0,63,0.00,,,0.00,Weather View 32 v70,2013-11-09 10:48:00,
2013-11-09 04:53:00,44.4,32.6,30.06,West,270,7.0,12.0,63,0.00,,,0.00,Weather View 32 v70,2013-11-09 10:53:00,
2013-11-09 04:58:00,44.3,32.9,30.06,West,270,6.0,12.0,64,0.00,,,0.00,Weather View 32 v70,2013-11-09 10:58:00,
2013-11-09 05:03:00,44.2,32.4,30.06,West,270,6.0,12.0,63,0.00,,,0.00,Weather View 32 v70,2013-11-09 11:03:00,
2013-11-09 05:08:00,44.2,32.4,30.06,WNW,292,7.0,12.0,63,0.00,,,0.00,Weather View 32 v70,2013-11-09 11:08:00,
2013-11-09 05:13:00,44.3,32.9,30.07,SSW,202,2.0,12.0,64,0.00,,,0.00,Weather View 32 v70,2013-11-09 11:13:00,
2013-11-09 05:18:00,44.2,32.8,30.07,WNW,292,5.0,12.0,64,0.00,,,0.00,Weather View 32 v70,2013-11-09 11:18:00,
2013-11-09 05:23:00,43.9,32.5,30.07,West,270,6.0,12.0,64,0.00,,,0.00,Weather View 32 v70,2013-11-09 11:23:00,
2013-11-09 05:28:00,43.9,32.9,30.08,West,270,4.0,12.0,65,0.00,,,0.00,Weather View 32 v70,2013-11-09 11:28:00,
2013-11-09 05:33:00,43.7,33.1,30.08,West,270,3.0,12.0,66,0.00,,,0.00,Weather View 32 v70,2013-11-09 11:33:00,
2013-11-09 05:38:00,43.5,33.3,30.08,WNW,292,4.0,12.0,67,0.00,,,0.00,Weather View 32 v70,2013-11-09 11:38:00,
2013-11-09 05:43:00,43.3,33.8,30.08,WNW,292,4.0,12.0,69,0.00,,,0.00,Weather View 32 v70,2013-11-09 11:43:00,
2013-11-09 05:48:00,43.2,34.4,30.09,WNW,292,4.0,12.0,71,0.00,,,0.00,Weather View 32 v70,2013-11-09 11:48:00,
2013-11-09 05:53:00,43.2,33.3,30.09,West,270,4.0,12.0,68,0.00,,,0.00,Weather View 32 v70,2013-11-09 11:53:00,
2013-11-09 05:58:00,43.3,33.4,30.09,West,270,11.0,12.0,68,0.00,,,0.00,Weather View 32 v70,2013-11-09 11:58:00,
2013-11-09 06:03:00,43.8,33.5,30.10,WNW,292,8.0,14.0,67,0.00,,,0.00,Weather View 32 v70,2013-11-09 12:03:00,
2013-11-09 06:08:00,44.3,34.4,30.10,WNW,292,11.0,19.0,68,0.00,,,0.00,Weather View 32 v70,2013-11-09 12:08:00,
2013-11-09 06:13:00,44.4,34.1,30.10,NW,315,11.0,19.0,67,0.00,,,0.00,Weather View 32 v70,2013-11-09 12:13:00,
2013-11-09 06:18:00,44.3,34.4,30.10,WNW,292,9.0,19.0,68,0.00,,,0.00,Weather View 32 v70,2013-11-09 12:18:00,
2013-11-09 06:23:00,44.3,34.4,30.10,WNW,292,11.0,19.0,68,0.00,,,0.00,Weather View 32 v70,2013-11-09 12:23:00,
2013-11-09 06:28:00,44.2,34.3,30.10,West,270,9.0,19.0,68,0.00,,,0.00,Weather View 32 v70,2013-11-09 12:28:00,
2013-11-09 06:33:00,44.2,34.3,30.11,West,270,11.0,19.0,68,0.00,,,0.00,Weather View 32 v70,2013-11-09 12:33:00,
2013-11-09 06:38:00,44.0,34.1,30.12,WNW,292,10.0,19.0,68,0.00,,,0.00,Weather View 32 v70,2013-11-09 12:38:00,
2013-11-09 06:43:00,43.8,34.3,30.12,WNW,292,4.0,19.0,69,0.00,,,0.00,Weather View 32 v70,2013-11-09 12:43:00,
2013-11-09 06:48:00,43.6,34.4,30.12,West,270,7.0,19.0,70,0.00,,,0.00,Weather View 32 v70,2013-11-09 12:48:00,
2013-11-09 06:53:00,43.4,34.3,30.12,West,270,8.0,19.0,70,0.00,,,0.00,Weather View 32 v70,2013-11-09 12:53:00,
2013-11-09 06:58:00,43.2,34.4,30.13,West,270,9.0,19.0,71,0.00,,,0.00,Weather View 32 v70,2013-11-09 12:58:00,
2013-11-09 07:03:00,43.1,34.3,30.13,West,270,8.0,19.0,71,0.00,,,0.00,Weather View 32 v70,2013-11-09 13:03:00,
2013-11-09 07:08:00,42.9,34.5,30.14,West,270,6.0,16.0,72,0.00,,,0.00,Weather View 32 v70,2013-11-09 13:08:00,
2013-11-09 07:14:00,42.8,34.7,30.14,West,270,7.0,16.0,73,0.00,,,0.00,Weather View 32 v70,2013-11-09 13:14:00,
2013-11-09 07:19:00,42.7,34.6,30.14,West,270,7.0,16.0,73,0.00,,,0.00,Weather View 32 v70,2013-11-09 13:19:00,
2013-11-09 07:24:00,42.6,34.9,30.14,WNW,292,9.0,16.0,74,0.00,,,0.00,Weather View 32 v70,2013-11-09 13:24:00,
2013-11-09 07:29:00,42.7,35.0,30.14,WNW,292,7.0,16.0,74,0.00,,,0.00,Weather View 32 v70,2013-11-09 13:29:00,
2013-11-09 07:34:00,42.9,34.8,30.14,WNW,292,7.0,16.0,73,0.00,,,0.00,Weather View 32 v70,2013-11-09 13:34:00,
2013-11-09 07:39:00,42.9,34.8,30.15,West,270,8.0,16.0,73,0.00,,,0.00,Weather View 32 v70,2013-11-09 13:39:00,
2013-11-09 07:44:00,42.9,34.8,30.15,West,270,10.0,14.0,73,0.00,,,0.00,Weather View 32 v70,2013-11-09 13:44:00,
2013-11-09 07:49:00,43.2,35.5,30.16,West,270,5.0,13.0,74,0.00,,,0.00,Weather View 32 v70,2013-11-09 13:49:00,
2013-11-09 07:54:00,43.2,35.1,30.16,West,270,11.0,13.0,73,0.00,,,0.00,Weather View 32 v70,2013-11-09 13:54:00,
2013-11-09 07:59:00,43.3,35.2,30.17,West,270,11.0,13.0,73,0.00,,,0.00,Weather View 32 v70,2013-11-09 13:59:00,
2013-11-09 08:04:00,43.4,35.3,30.17,WNW,292,9.0,12.0,73,0.00,,,0.00,Weather View 32 v70,2013-11-09 14:04:00,
2013-11-09 08:09:00,43.6,35.5,30.17,South,180,2.0,15.0,73,0.00,,,0.00,Weather View 32 v70,2013-11-09 14:09:00,
2013-11-09 08:14:00,43.8,35.4,30.18,WNW,292,9.0,15.0,72,0.00,,,0.00,Weather View 32 v70,2013-11-09 14:14:00,
2013-11-09 08:19:00,44.1,35.6,30.18,West,270,8.0,15.0,72,0.00,,,0.00,Weather View 32 v70,2013-11-09 14:19:00,
2013-11-09 08:24:00,44.2,35.7,30.18,NW,315,4.0,16.0,72,0.00,,,0.00,Weather View 32 v70,2013-11-09 14:24:00,
2013-11-09 08:29:00,44.3,35.5,30.19,NW,315,12.0,17.0,71,0.00,,,0.00,Weather View 32 v70,2013-11-09 14:29:00,
2013-11-09 08:34:00,44.5,35.7,30.18,WNW,292,14.0,17.0,71,0.00,,,0.00,Weather View 32 v70,2013-11-09 14:34:00,
2013-11-09 08:39:00,44.6,35.8,30.19,West,270,13.0,18.0,71,0.00,,,0.00,Weather View 32 v70,2013-11-09 14:39:00,
2013-11-09 08:44:00,44.7,35.9,30.20,West,270,7.0,21.0,71,0.00,,,0.00,Weather View 32 v70,2013-11-09 14:44:00,
2013-11-09 08:49:00,44.8,35.6,30.20,WNW,292,9.0,21.0,70,0.00,,,0.00,Weather View 32 v70,2013-11-09 14:49:00,
2013-11-09 08:54:00,44.9,35.7,30.20,West,270,13.0,21.0,70,0.00,,,0.00,Weather View 32 v70,2013-11-09 14:54:00,
2013-11-09 08:59:00,45.1,35.5,30.20,West,270,12.0,21.0,69,0.00,,,0.00,Weather View 32 v70,2013-11-09 14:59:00,
2013-11-09 09:04:00,45.2,36.0,30.19,West,270,16.0,21.0,70,0.00,,,0.00,Weather View 32 v70,2013-11-09 15:04:00,
2013-11-09 09:09:00,45.3,35.7,30.20,West,270,15.0,21.0,69,0.00,,,0.00,Weather View 32 v70,2013-11-09 15:09:00,
2013-11-09 09:14:00,45.3,36.1,30.20,WNW,292,6.0,22.0,70,0.00,,,0.00,Weather View 32 v70,2013-11-09 15:14:00,
2013-11-09 09:19:00,45.4,35.8,30.20,WNW,292,11.0,25.0,69,0.00,,,0.00,Weather View 32 v70,2013-11-09 15:19:00,
2013-11-09 09:24:00,45.5,36.3,30.20,WNW,292,10.0,25.0,70,0.00,,,0.00,Weather View 32 v70,2013-11-09 15:24:00,
2013-11-09 09:29:00,45.5,35.9,30.20,West,270,7.0,25.0,69,0.00,,,0.00,Weather View 32 v70,2013-11-09 15:29:00,
2013-11-09 09:34:00,45.6,36.4,30.20,West,270,16.0,25.0,70,0.00,,,0.00,Weather View 32 v70,2013-11-09 15:34:00,
2013-11-09 09:39:00,45.6,36.0,30.21,WNW,292,5.0,25.0,69,0.00,,,0.00,Weather View 32 v70,2013-11-09 15:39:00,
2013-11-09 09:44:00,45.7,36.1,30.22,WNW,292,7.0,25.0,69,0.00,,,0.00,Weather View 32 v70,2013-11-09 15:44:00,
2013-11-09 09:49:00,45.7,36.5,30.21,West,270,8.0,25.0,70,0.00,,,0.00,Weather View 32 v70,2013-11-09 15:49:00,
2013-11-09 09:54:00,45.8,36.2,30.22,NW,315,11.0,25.0,69,0.00,,,0.00,Weather View 32 v70,2013-11-09 15:54:00,
2013-11-09 09:59:00,45.9,35.9,30.22,West,270,14.0,26.0,68,0.00,,,0.00,Weather View 32 v70,2013-11-09 15:59:00,
2013-11-09 10:04:00,45.9,36.3,30.22,WNW,292,9.0,26.0,69,0.00,,,0.00,Weather View 32 v70,2013-11-09 16:04:00,
2013-11-09 10:10:00,45.9,36.3,30.22,NW,315,12.0,26.0,69,0.00,,,0.00,Weather View 32 v70,2013-11-09 16:10:00,
2013-11-09 10:15:00,46.1,36.1,30.22,WNW,292,10.0,26.0,68,0.00,,,0.00,Weather View 32 v70,2013-11-09 16:15:00,
2013-11-09 10:20:00,46.2,36.6,30.23,WNW,292,12.0,26.0,69,0.00,,,0.00,Weather View 32 v70,2013-11-09 16:20:00,
2013-11-09 10:25:00,46.3,36.3,30.23,WNW,292,18.0,26.0,68,0.00,,,0.00,Weather View 32 v70,2013-11-09 16:25:00,
2013-11-09 10:30:00,46.5,36.5,30.23,WNW,292,12.0,26.0,68,0.00,,,0.00,Weather View 32 v70,2013-11-09 16:30:00,
2013-11-09 10:35:00,46.7,36.3,30.24,WNW,292,7.0,26.0,67,0.00,,,0.00,Weather View 32 v70,2013-11-09 16:35:00,
2013-11-09 10:40:00,46.7,36.3,30.23,West,270,10.0,26.0,67,0.00,,,0.00,Weather View 32 v70,2013-11-09 16:40:00,
2013-11-09 10:45:00,47.0,37.0,30.24,West,270,8.0,26.0,68,0.00,,,0.00,Weather View 32 v70,2013-11-09 16:45:00,
2013-11-09 10:50:00,47.2,37.2,30.24,West,270,10.0,26.0,68,0.00,,,0.00,Weather View 32 v70,2013-11-09 16:50:00,
2013-11-09 10:55:00,47.2,36.4,30.24,WNW,292,5.0,26.0,66,0.00,,,0.00,Weather View 32 v70,2013-11-09 16:55:00,
2013-11-09 11:00:00,47.5,35.9,30.24,WNW,292,17.0,26.0,64,0.00,,,0.00,Weather View 32 v70,2013-11-09 17:00:00,
2013-11-09 11:05:00,47.4,36.2,30.24,West,270,17.0,23.0,65,0.00,,,0.00,Weather View 32 v70,2013-11-09 17:05:00,
2013-11-09 11:10:00,47.7,36.1,30.25,WNW,292,6.0,23.0,64,0.00,,,0.00,Weather View 32 v70,2013-11-09 17:10:00,
2013-11-09 11:15:00,47.9,37.1,30.24,NW,315,12.0,23.0,66,0.00,,,0.00,Weather View 32 v70,2013-11-09 17:15:00,
2013-11-09 11:20:00,48.2,36.6,30.25,WNW,292,13.0,23.0,64,0.00,,,0.00,Weather View 32 v70,2013-11-09 17:20:00,
2013-11-09 11:25:00,48.6,36.6,30.24,NW,315,19.0,22.0,63,0.00,,,0.00,Weather View 32 v70,2013-11-09 17:25:00,
2013-11-09 11:30:00,48.3,37.1,30.24,NW,315,11.0,22.0,65,0.00,,,0.00,Weather View 32 v70,2013-11-09 17:30:00,
2013-11-09 11:35:00,48.7,37.0,30.24,NW,315,8.0,22.0,64,0.00,,,0.00,Weather View 32 v70,2013-11-09 17:35:00,
2013-11-09 11:40:00,48.9,36.8,30.24,WNW,292,6.0,22.0,63,0.00,,,0.00,Weather View 32 v70,2013-11-09 17:40:00,
2013-11-09 11:45:00,49.3,36.8,30.24,West,270,8.0,22.0,62,0.00,,,0.00,Weather View 32 v70,2013-11-09 17:45:00,
2013-11-09 11:50:00,49.8,36.9,30.24,NW,315,11.0,22.0,61,0.00,,,0.00,Weather View 32 v70,2013-11-09 17:50:00,
2013-11-09 11:55:00,49.9,36.5,30.24,NW,315,16.0,25.0,60,0.00,,,0.00,Weather View 32 v70,2013-11-09 17:55:00,
2013-11-09 12:00:00,49.8,36.4,30.24,West,270,11.0,26.0,60,0.00,,,0.00,Weather View 32 v70,2013-11-09 18:00:00,
2013-11-09 12:05:00,50.0,37.1,30.24,West,270,11.0,26.0,61,0.00,,,0.00,Weather View 32 v70,2013-11-09 18:05:00,
2013-11-09 12:10:00,50.1,36.3,30.26,WNW,292,12.0,26.0,59,0.00,,,0.00,Weather View 32 v70,2013-11-09 18:10:00,
2013-11-09 12:15:00,50.1,36.7,30.25,NW,315,16.0,26.0,60,0.00,,,0.00,Weather View 32 v70,2013-11-09 18:15:00,
2013-11-09 12:20:00,50.2,37.2,30.25,West,270,13.0,26.0,61,0.00,,,0.00,Weather View 32 v70,2013-11-09 18:20:00,
2013-11-09 12:25:00,50.2,37.2,30.25,NW,315,9.0,26.0,61,0.00,,,0.00,Weather View 32 v70,2013-11-09 18:25:00,
2013-11-09 12:30:00,50.2,37.2,30.25,NW,315,12.0,26.0,61,0.00,,,0.00,Weather View 32 v70,2013-11-09 18:30:00,
2013-11-09 12:35:00,49.9,37.8,30.25,WNW,292,7.0,26.0,63,0.00,,,0.00,Weather View 32 v70,2013-11-09 18:35:00,
2013-11-09 12:41:00,50.5,37.5,30.26,NW,315,8.0,26.0,61,0.00,,,0.00,Weather View 32 v70,2013-11-09 18:41:00,
2013-11-09 12:46:00,50.6,36.8,30.25,WNW,292,8.0,26.0,59,0.00,,,0.00,Weather View 32 v70,2013-11-09 18:46:00,
2013-11-09 12:51:00,50.8,38.2,30.25,NW,315,16.0,26.0,62,0.00,,,0.00,Weather View 32 v70,2013-11-09 18:51:00,
2013-11-09 12:56:00,50.9,37.1,30.25,NW,315,16.0,26.0,59,0.00,,,0.00,Weather View 32 v70,2013-11-09 18:56:00,
2013-11-09 13:01:00,50.8,37.0,30.24,NW,315,14.0,21.0,59,0.00,,,0.00,Weather View 32 v70,2013-11-09 19:01:00,
2013-11-09 13:06:00,51.0,37.2,30.25,WNW,292,16.0,21.0,59,0.00,,,0.00,Weather View 32 v70,2013-11-09 19:06:00,
2013-11-09 13:11:00,51.1,37.2,30.24,WNW,292,11.0,22.0,59,0.00,,,0.00,Weather View 32 v70,2013-11-09 19:11:00,
2013-11-09 13:16:00,50.9,37.1,30.24,NW,315,13.0,22.0,59,0.00,,,0.00,Weather View 32 v70,2013-11-09 19:16:00,
2013-11-09 13:21:00,51.4,37.5,30.24,West,270,9.0,22.0,59,0.00,,,0.00,Weather View 32 v70,2013-11-09 19:21:00,
2013-11-09 13:26:00,51.7,37.4,30.25,West,270,9.0,22.0,58,0.00,,,0.00,Weather View 32 v70,2013-11-09 19:26:00,
2013-11-09 13:31:00,51.8,37.0,30.24,WNW,292,12.0,22.0,57,0.00,,,0.00,Weather View 32 v70,2013-11-09 19:31:00,
2013-11-09 13:36:00,51.8,37.0,30.25,West,270,12.0,22.0,57,0.00,,,0.00,Weather View 32 v70,2013-11-09 19:36:00,
2013-11-09 13:41:00,52.0,37.2,30.26,West,270,9.0,22.0,57,0.00,,,0.00,Weather View 32 v70,2013-11-09 19:41:00,
2013-11-09 13:46:00,52.3,37.0,30.26,West,270,7.0,22.0,56,0.00,,,0.00,Weather View 32 v70,2013-11-09 19:46:00,
2013-11-09 13:51:00,52.0,36.8,30.26,NW,315,15.0,22.0,56,0.00,,,0.00,Weather View 32 v70,2013-11-09 19:51:00,
2013-11-09 13:56:00,52.2,36.5,30.25,West,270,17.0,22.0,55,0.00,,,0.00,Weather View 32 v70,2013-11-09 19:56:00,
2013-11-09 14:01:00,52.4,37.1,30.26,West,270,13.0,22.0,56,0.00,,,0.00,Weather View 32 v70,2013-11-09 20:01:00,
2013-11-09 14:06:00,52.6,36.9,30.26,WNW,292,11.0,22.0,55,0.00,,,0.00,Weather View 32 v70,2013-11-09 20:06:00,
2013-11-09 14:11:00,52.3,37.5,30.26,West,270,16.0,22.0,57,0.00,,,0.00,Weather View 32 v70,2013-11-09 20:11:00,
2013-11-09 14:16:00,52.3,37.0,30.26,NW,315,18.0,22.0,56,0.00,,,0.00,Weather View 32 v70,2013-11-09 20:16:00,
2013-11-09 14:21:00,52.6,36.9,30.26,West,270,9.0,22.0,55,0.00,,,0.00,Weather View 32 v70,2013-11-09 20:21:00,
2013-11-09 14:26:00,52.7,36.5,30.27,West,270,9.0,23.0,54,0.00,,,0.00,Weather View 32 v70,2013-11-09 20:26:00,
2013-11-09 14:31:00,52.9,36.7,30.27,West,270,7.0,23.0,54,0.00,,,0.00,Weather View 32 v70,2013-11-09 20:31:00,
2013-11-09 14:36:00,52.8,36.1,30.26,WNW,292,15.0,23.0,53,0.00,,,0.00,Weather View 32 v70,2013-11-09 20:36:00,
2013-11-09 14:41:00,52.9,36.2,30.26,WNW,292,16.0,23.0,53,0.00,,,0.00,Weather View 32 v70,2013-11-09 20:41:00,
2013-11-09 14:46:00,52.9,37.1,30.27,West,270,9.0,23.0,55,0.00,,,0.00,Weather View 32 v70,2013-11-09 20:46:00,
2013-11-09 14:51:00,53.3,36.6,30.27,West,270,9.0,23.0,53,0.00,,,0.00,Weather View 32 v70,2013-11-09 20:51:00,
2013-11-09 14:56:00,53.5,35.3,30.28,West,270,9.0,23.0,50,0.00,,,0.00,Weather View 32 v70,2013-11-09 20:56:00,
2013-11-09 15:01:00,53.4,35.2,30.28,West,270,11.0,23.0,50,0.00,,,0.00,Weather View 32 v70,2013-11-09 21:01:00,
2013-11-09 15:06:00,53.4,35.2,30.27,West,270,12.0,23.0,50,0.00,,,0.00,Weather View 32 v70,2013-11-09 21:06:00,
2013-11-09 15:11:00,53.2,35.5,30.28,NW,315,12.0,23.0,51,0.00,,,0.00,Weather View 32 v70,2013-11-09 21:11:00,
2013-11-09 15:16:00,53.1,34.9,30.28,West,270,10.0,23.0,50,0.00,,,0.00,Weather View 32 v70,2013-11-09 21:16:00,
2013-11-09 15:21:00,53.1,34.9,30.28,West,270,12.0,23.0,50,0.00,,,0.00,Weather View 32 v70,2013-11-09 21:21:00,
2013-11-09 15:26:00,52.9,35.2,30.28,West,270,10.0,23.0,51,0.00,,,0.00,Weather View 32 v70,2013-11-09 21:26:00,
2013-11-09 15:32:00,52.8,35.6,30.29,West,270,11.0,23.0,52,0.00,,,0.00,Weather View 32 v70,2013-11-09 21:32:00,
2013-11-09 15:37:00,52.8,35.6,30.29,West,270,9.0,23.0,52,0.00,,,0.00,Weather View 32 v70,2013-11-09 21:37:00,
2013-11-09 15:42:00,52.7,36.5,30.29,WNW,292,16.0,23.0,54,0.00,,,0.00,Weather View 32 v70,2013-11-09 21:42:00,
2013-11-09 15:47:00,52.2,36.9,30.30,NW,315,14.0,23.0,56,0.00,,,0.00,Weather View 32 v70,2013-11-09 21:47:00,
2013-11-09 15:52:00,51.7,36.5,30.29,WNW,292,5.0,23.0,56,0.00,,,0.00,Weather View 32 v70,2013-11-09 21:52:00,
2013-11-09 15:57:00,51.4,36.6,30.29,WNW,292,16.0,23.0,57,0.00,,,0.00,Weather View 32 v70,2013-11-09 21:57:00,
2013-11-09 16:02:00,51.4,35.7,30.30,WNW,292,14.0,23.0,55,0.00,,,0.00,Weather View 32 v70,2013-11-09 22:02:00,
2013-11-09 16:07:00,51.4,36.2,30.30,West,270,7.0,23.0,56,0.00,,,0.00,Weather View 32 v70,2013-11-09 22:07:00,
2013-11-09 16:12:00,51.3,36.1,30.31,WNW,292,9.0,23.0,56,0.00,,,0.00,Weather View 32 v70,2013-11-09 22:12:00,
2013-11-09 16:17:00,51.1,35.9,30.31,WNW,292,5.0,23.0,56,0.00,,,0.00,Weather View 32 v70,2013-11-09 22:17:00,
2013-11-09 16:22:00,50.8,36.1,30.30,NW,315,12.0,23.0,57,0.00,,,0.00,Weather View 32 v70,2013-11-09 22:22:00,
2013-11-09 16:27:00,50.7,35.1,30.31,WNW,292,12.0,23.0,55,0.00,,,0.00,Weather View 32 v70,2013-11-09 22:27:00,
2013-11-09 16:32:00,50.3,34.7,30.31,WNW,292,12.0,23.0,55,0.00,,,0.00,Weather View 32 v70,2013-11-09 22:32:00,
2013-11-09 16:37:00,50.1,35.0,30.31,NW,315,15.0,23.0,56,0.00,,,0.00,Weather View 32 v70,2013-11-09 22:37:00,
2013-11-09 16:42:00,49.9,34.3,30.31,NW,315,13.0,23.0,55,0.00,,,0.00,Weather View 32 v70,2013-11-09 22:42:00,
2013-11-09 16:47:00,49.5,35.3,30.31,WNW,292,10.0,23.0,58,0.00,,,0.00,Weather View 32 v70,2013-11-09 22:47:00,
2013-11-09 16:52:00,49.2,35.0,30.31,WNW,292,12.0,23.0,58,0.00,,,0.00,Weather View 32 v70,2013-11-09 22:52:00,
2013-11-09 16:57:00,48.8,34.7,30.31,WNW,292,6.0,22.0,58,0.00,,,0.00,Weather View 32 v70,2013-11-09 22:57:00,
2013-11-09 17:02:00,48.5,34.8,30.32,West,270,7.0,22.0,59,0.00,,,0.00,Weather View 32 v70,2013-11-09 23:02:00,
2013-11-09 17:07:00,48.0,35.2,30.31,West,270,2.0,22.0,61,0.00,,,0.00,Weather View 32 v70,2013-11-09 23:07:00,
2013-11-09 17:12:00,47.7,34.9,30.31,West,270,4.0,22.0,61,0.00,,,0.00,Weather View 32 v70,2013-11-09 23:12:00,
2013-11-09 17:17:00,47.4,34.6,30.32,West,270,4.0,22.0,61,0.00,,,0.00,Weather View 32 v70,2013-11-09 23:17:00,
2013-11-09 17:22:00,47.2,34.8,30.32,West,270,2.0,22.0,62,0.00,,,0.00,Weather View 32 v70,2013-11-09 23:22:00,
2013-11-09 17:27:00,46.9,34.5,30.32,West,270,4.0,22.0,62,0.00,,,0.00,Weather View 32 v70,2013-11-09 23:27:00,
2013-11-09 17:32:00,46.7,34.4,30.33,West,270,4.0,19.0,62,0.00,,,0.00,Weather View 32 v70,2013-11-09 23:32:00,
2013-11-09 17:37:00,46.3,34.4,30.33,West,270,4.0,19.0,63,0.00,,,0.00,Weather View 32 v70,2013-11-09 23:37:00,
2013-11-09 17:42:00,45.8,34.3,30.33,West,270,2.0,16.0,64,0.00,,,0.00,Weather View 32 v70,2013-11-09 23:42:00,
2013-11-09 17:47:00,45.7,34.2,30.33,West,270,4.0,14.0,64,0.00,,,0.00,Weather View 32 v70,2013-11-09 23:47:00,
2013-11-09 17:52:00,45.5,34.4,30.33,West,270,2.0,14.0,65,0.00,,,0.00,Weather View 32 v70,2013-11-09 23:52:00,
2013-11-09 17:57:00,45.2,34.1,30.33,West,270,1.0,14.0,65,0.00,,,0.00,Weather View 32 v70,2013-11-09 23:57:00,
2013-11-09 18:02:00,44.7,33.6,30.34,West,270,2.0,14.0,65,0.00,,,0.00,Weather View 32 v70,2013-11-10 00:02:00,
2013-11-09 18:07:00,44.6,33.5,30.34,West,270,1.0,14.0,65,0.00,,,0.00,Weather View 32 v70,2013-11-10 00:07:00,
2013-11-09 18:13:00,44.5,33.5,30.34,West,270,2.0,9.0,65,0.00,,,0.00,Weather View 32 v70,2013-11-10 00:13:00,
2013-11-09 18:18:00,44.2,33.5,30.35,West,270,2.0,7.0,66,0.00,,,0.00,Weather View 32 v70,2013-11-10 00:18:00,
2013-11-09 18:23:00,43.9,33.6,30.35,West,270,2.0,5.0,67,0.00,,,0.00,Weather View 32 v70,2013-11-10 00:23:00,
2013-11-09 18:28:00,44.2,33.2,30.35,West,270,2.0,6.0,65,0.00,,,0.00,Weather View 32 v70,2013-11-10 00:28:00,
2013-11-09 18:33:00,44.1,33.5,30.35,WNW,292,2.0,6.0,66,0.00,,,0.00,Weather View 32 v70,2013-11-10 00:33:00,
2013-11-09 18:38:00,43.8,34.3,30.35,NNW,337,2.0,6.0,69,0.00,,,0.00,Weather View 32 v70,2013-11-10 00:38:00,
2013-11-09 18:43:00,43.3,33.1,30.35,NNW,337,3.0,6.0,67,0.00,,,0.00,Weather View 32 v70,2013-11-10 00:43:00,
2013-11-09 18:48:00,42.9,33.1,30.36,NW,315,4.0,7.0,68,0.00,,,0.00,Weather View 32 v70,2013-11-10 00:48:00,
2013-11-09 18:53:00,42.9,34.1,30.36,NW,315,7.0,8.0,71,0.00,,,0.00,Weather View 32 v70,2013-11-10 00:53:00,
2013-11-09 18:58:00,42.9,33.8,30.36,NW,315,7.0,9.0,70,0.00,,,0.00,Weather View 32 v70,2013-11-10 00:58:00,
2013-11-09 19:03:00,42.8,34.4,30.36,NW,315,6.0,9.0,72,0.00,,,0.00,Weather View 32 v70,2013-11-10 01:03:00,
2013-11-09 19:08:00,42.7,34.3,30.37,NW,315,6.0,9.0,72,0.00,,,0.00,Weather View 32 v70,2013-11-10 01:08:00,
2013-11-09 19:13:00,42.8,33.7,30.37,WNW,292,5.0,9.0,70,0.00,,,0.00,Weather View 32 v70,2013-11-10 01:13:00,
2013-11-09 19:18:00,42.8,33.3,30.37,West,270,1.0,9.0,69,0.00,,,0.00,Weather View 32 v70,2013-11-10 01:18:00,
2013-11-09 19:23:00,42.7,32.9,30.37,West,270,3.0,9.0,68,0.00,,,0.00,Weather View 32 v70,2013-11-10 01:23:00,
2013-11-09 19:28:00,42.4,32.9,30.38,West,270,2.0,9.0,69,0.00,,,0.00,Weather View 32 v70,2013-11-10 01:28:00,
2013-11-09 19:33:00,42.0,32.9,30.38,West,270,2.0,9.0,70,0.00,,,0.00,Weather View 32 v70,2013-11-10 01:33:00,
2013-11-09 19:38:00,41.8,32.4,30.38,WNW,292,4.0,9.0,69,0.00,,,0.00,Weather View 32 v70,2013-11-10 01:38:00,
2013-11-09 19:43:00,41.5,32.1,30.38,West,270,2.0,9.0,69,0.00,,,0.00,Weather View 32 v70,2013-11-10 01:43:00,
2013-11-09 19:48:00,41.2,32.1,30.38,West,270,2.0,9.0,70,0.00,,,0.00,Weather View 32 v70,2013-11-10 01:48:00,
2013-11-09 19:53:00,40.9,32.2,30.39,West,270,2.0,9.0,71,0.00,,,0.00,Weather View 32 v70,2013-11-10 01:53:00,
2013-11-09 19:58:00,40.5,32.2,30.39,West,270,2.0,9.0,72,0.00,,,0.00,Weather View 32 v70,2013-11-10 01:58:00,
2013-11-09 20:03:00,39.8,31.8,30.39,West,270,3.0,9.0,73,0.00,,,0.00,Weather View 32 v70,2013-11-10 02:03:00,
2013-11-09 20:08:00,39.2,32.3,30.39,West,270,2.0,9.0,76,0.00,,,0.00,Weather View 32 v70,2013-11-10 02:08:00,
2013-11-09 20:13:00,38.9,31.6,30.39,West,270,4.0,8.0,75,0.00,,,0.00,Weather View 32 v70,2013-11-10 02:13:00,
2013-11-09 20:18:00,38.7,31.8,30.39,West,270,2.0,7.0,76,0.00,,,0.00,Weather View 32 v70,2013-11-10 02:18:00,
2013-11-09 20:23:00,38.4,31.5,30.39,WSW,247,2.0,7.0,76,0.00,,,0.00,Weather View 32 v70,2013-11-10 02:23:00,
2013-11-09 20:28:00,37.9,31.0,30.40,West,270,3.0,7.0,76,0.00,,,0.00,Weather View 32 v70,2013-11-10 02:28:00,
2013-11-09 20:33:00,37.7,31.1,30.40,West,270,2.0,7.0,77,0.00,,,0.00,Weather View 32 v70,2013-11-10 02:33:00,
2013-11-09 20:38:00,37.5,30.6,30.40,West,270,2.0,7.0,76,0.00,,,0.00,Weather View 32 v70,2013-11-10 02:38:00,
2013-11-09 20:43:00,37.6,30.4,30.41,West,270,2.0,7.0,75,0.00,,,0.00,Weather View 32 v70,2013-11-10 02:43:00,
2013-11-09 20:48:00,37.4,30.8,30.41,West,270,3.0,7.0,77,0.00,,,0.00,Weather View 32 v70,2013-11-10 02:48:00,
2013-11-09 20:54:00,37.5,30.6,30.41,West,270,2.0,7.0,76,0.00,,,0.00,Weather View 32 v70,2013-11-10 02:54:00,
2013-11-09 20:59:00,37.5,31.3,30.41,West,270,2.0,7.0,78,0.00,,,0.00,Weather View 32 v70,2013-11-10 02:59:00,
2013-11-09 21:04:00,37.3,30.7,30.42,West,270,3.0,7.0,77,0.00,,,0.00,Weather View 32 v70,2013-11-10 03:04:00,
2013-11-09 21:09:00,37.2,31.0,30.42,West,270,4.0,7.0,78,0.00,,,0.00,Weather View 32 v70,2013-11-10 03:09:00,
2013-11-09 21:14:00,37.1,30.9,30.42,WNW,292,4.0,6.0,78,0.00,,,0.00,Weather View 32 v70,2013-11-10 03:14:00,
2013-11-09 21:19:00,37.2,30.6,30.42,WNW,292,5.0,6.0,77,0.00,,,0.00,Weather View 32 v70,2013-11-10 03:19:00,
2013-11-09 21:24:00,37.3,30.4,30.42,WNW,292,6.0,7.0,76,0.00,,,0.00,Weather View 32 v70,2013-11-10 03:24:00,
2013-11-09 21:29:00,37.3,30.1,30.43,WNW,292,2.0,7.0,75,0.00,,,0.00,Weather View 32 v70,2013-11-10 03:29:00,
2013-11-09 21:34:00,37.1,29.9,30.43,West,270,2.0,7.0,75,0.00,,,0.00,Weather View 32 v70,2013-11-10 03:34:00,
2013-11-09 21:39:00,36.7,30.2,30.43,West,270,2.0,7.0,77,0.00,,,0.00,Weather View 32 v70,2013-11-10 03:39:00,
2013-11-09 21:44:00,36.4,29.9,30.43,West,270,2.0,7.0,77,0.00,,,0.00,Weather View 32 v70,2013-11-10 03:44:00,
2013-11-09 21:49:00,36.1,29.9,30.43,West,270,3.0,7.0,78,0.00,,,0.00,Weather View 32 v70,2013-11-10 03:49:00,
2013-11-09 21:54:00,36.0,29.5,30.44,West,270,4.0,7.0,77,0.00,,,0.00,Weather View 32 v70,2013-11-10 03:54:00,
2013-11-09 21:59:00,35.9,29.7,30.44,West,270,3.0,7.0,78,0.00,,,0.00,Weather View 32 v70,2013-11-10 03:59:00,
2013-11-09 22:04:00,35.6,29.4,30.44,West,270,3.0,7.0,78,0.00,,,0.00,Weather View 32 v70,2013-11-10 04:04:00,
2013-11-09 22:09:00,35.4,29.2,30.44,West,270,2.0,7.0,78,0.00,,,0.00,Weather View 32 v70,2013-11-10 04:09:00,
2013-11-09 22:14:00,35.2,29.0,30.44,NW,315,4.0,7.0,78,0.00,,,0.00,Weather View 32 v70,2013-11-10 04:14:00,
2013-11-09 22:19:00,35.0,29.1,30.45,West,270,2.0,7.0,79,0.00,,,0.00,Weather View 32 v70,2013-11-10 04:19:00,
2013-11-09 22:24:00,34.7,29.8,30.45,West,270,1.0,7.0,82,0.00,,,0.00,Weather View 32 v70,2013-11-10 04:24:00,
2013-11-09 22:29:00,34.3,29.7,30.45,West,270,1.0,7.0,83,0.00,,,0.00,Weather View 32 v70,2013-11-10 04:29:00,
2013-11-09 22:34:00,33.9,29.0,30.45,NW,315,1.0,7.0,82,0.00,,,0.00,Weather View 32 v70,2013-11-10 04:34:00,
2013-11-09 22:39:00,33.9,29.0,30.45,NW,315,1.0,7.0,82,0.00,,,0.00,Weather View 32 v70,2013-11-10 04:39:00,
2013-11-09 22:44:00,33.7,28.8,30.45,NW,315,0.0,7.0,82,0.00,,,0.00,Weather View 32 v70,2013-11-10 04:44:00,
2013-11-09 22:49:00,33.4,28.8,30.45,NW,315,0.0,7.0,83,0.00,,,0.00,Weather View 32 v70,2013-11-10 04:49:00,
2013-11-09 22:54:00,33.0,28.4,30.45,NW,315,0.0,7.0,83,0.00,,,0.00,Weather View 32 v70,2013-11-10 04:54:00,
2013-11-09 22:59:00,32.7,28.7,30.46,NW,315,0.0,7.0,85,0.00,,,0.00,Weather View 32 v70,2013-11-10 04:59:00,
2013-11-09 23:01:00,32.6,28.6,30.46,NW,315,0.0,7.0,85,0.00,,,0.00,Weather View 32 v70,2013-11-10 05:01:00,
2013-11-09 23:03:00,32.6,28.6,30.46,NW,315,0.0,7.0,85,0.00,,,0.00,Weather View 32 v70,2013-11-10 05:03:00,
2013-11-09 23:08:00,32.3,28.3,30.46,SSW,202,2.0,4.0,85,0.00,,,0.00,Weather View 32 v70,2013-11-10 05:08:00,
2013-11-09 23:13:00,32.4,28.4,30.46,SW,225,2.0,4.0,85,0.00,,,0.00,Weather View 32 v70,2013-11-10 05:13:00,
2013-11-09 23:18:00,32.4,28.1,30.46,WSW,247,1.0,2.0,84,0.00,,,0.00,Weather View 32 v70,2013-11-10 05:18:00,
2013-11-09 23:23:00,32.2,28.2,30.46,WSW,247,2.0,2.0,85,0.00,,,0.00,Weather View 32 v70,2013-11-10 05:23:00,
2013-11-09 23:28:00,32.0,27.7,30.46,West,270,2.0,2.0,84,0.00,,,0.00,Weather View 32 v70,2013-11-10 05:28:00,
2013-11-09 23:33:00,32.0,27.7,30.46,NW,315,2.0,2.0,84,0.00,,,0.00,Weather View 32 v70,2013-11-10 05:33:00,
2013-11-09 23:38:00,31.9,27.6,30.46,NW,315,1.0,2.0,84,0.00,,,0.00,Weather View 32 v70,2013-11-10 05:38:00,
2013-11-09 23:43:00,32.1,27.8,30.46,NW,315,2.0,4.0,84,0.00,,,0.00,Weather View 32 v70,2013-11-10 05:43:00,
2013-11-09 23:48:00,32.2,27.9,30.46,NW,315,4.0,4.0,84,0.00,,,0.00,Weather View 32 v70,2013-11-10 05:48:00,
2013-11-09 23:53:00,32.2,27.9,30.46,NW,315,3.0,4.0,84,0.00,,,0.00,Weather View 32 v70,2013-11-10 05:53:00,
2013-11-09 23:58:00,31.9,27.6,30.46,NW,315,2.0,5.0,84,0.00,,,0.00,Weather View 32 v70,2013-11-10 05:58:00,